Time,TemperatureF,DewpointF,PressureIn,WindDirection,WindDirectionDegrees,WindSpeedMPH,WindSpeedGustMPH,Humidity,HourlyPrecipIn,Conditions,Clouds,dailyrainin,SoftwareType,DateUTC
2013-02-08 00:00:00,28.7,19.5,30.22,SW,223,0.0,0.0,68,0.00,,,0.00,Wunderground v.1.15,2013-02-08 05:00:00,
2013-02-08 00:10:00,28.8,19.6,30.22,SW,217,0.0,0.0,68,0.00,,,0.00,Wunderground v.1.15,2013-02-08 05:10:00,
2013-02-08 00:20:00,29.0,19.8,30.22,SSE,160,0.0,0.0,68,0.00,,,0.00,Wunderground v.1.15,2013-02-08 05:20:00,
2013-02-08 00:30:00,29.1,19.8,30.20,SSE,160,0.0,0.0,68,0.00,,,0.00,Wunderground v.1.15,2013-02-08 05:30:00,
2013-02-08 00:40:00,29.3,20.4,30.20,ESE,109,0.0,0.0,69,0.00,,,0.00,Wunderground v.1.15,2013-02-08 05:40:00,
2013-02-08 00:50:00,29.4,20.8,30.20,WSW,243,1.0,1.0,70,0.00,,,0.00,Wunderground v.1.15,2013-02-08 05:50:00,
2013-02-08 01:00:00,29.7,21.1,30.19,SSW,203,0.0,0.0,70,0.00,,,0.00,Wunderground v.1.15,2013-02-08 06:00:00,
2013-02-08 01:10:00,30.1,21.8,30.19,West,272,1.0,2.0,71,0.00,,,0.00,Wunderground v.1.15,2013-02-08 06:10:00,
2013-02-08 01:20:00,30.6,22.3,30.19,SSW,196,1.0,1.0,71,0.00,,,0.00,Wunderground v.1.15,2013-02-08 06:20:00,
2013-02-08 01:30:00,30.6,22.3,30.18,SSW,192,1.0,1.0,71,0.00,,,0.00,Wunderground v.1.15,2013-02-08 06:30:00,
2013-02-08 01:40:00,30.6,22.0,30.18,SE,128,1.0,1.0,70,0.00,,,0.00,Wunderground v.1.15,2013-02-08 06:40:00,
2013-02-08 01:50:00,30.6,22.0,30.17,North,349,0.0,0.0,70,0.00,,,0.00,Wunderground v.1.15,2013-02-08 06:50:00,
2013-02-08 02:00:00,30.4,21.8,30.17,ESE,119,0.0,0.0,70,0.00,,,0.00,Wunderground v.1.15,2013-02-08 07:00:00,
2013-02-08 02:10:00,30.3,21.7,30.17,NE,52,1.0,3.0,70,0.00,,,0.00,Wunderground v.1.15,2013-02-08 07:10:00,
2013-02-08 02:20:00,30.1,21.5,30.16,NE,51,1.0,1.0,70,0.00,,,0.00,Wunderground v.1.15,2013-02-08 07:20:00,
2013-02-08 02:30:00,30.1,21.5,30.16,West,275,0.0,0.0,70,0.00,,,0.00,Wunderground v.1.15,2013-02-08 07:30:00,
2013-02-08 02:40:00,30.1,21.2,30.16,ESE,113,1.0,1.0,69,0.00,,,0.00,Wunderground v.1.15,2013-02-08 07:40:00,
2013-02-08 02:50:00,30.1,21.5,30.15,NE,52,1.0,2.0,70,0.00,,,0.00,Wunderground v.1.15,2013-02-08 07:50:00,
2013-02-08 03:00:00,30.1,21.5,30.14,NE,48,1.0,1.0,70,0.00,,,0.00,Wunderground v.1.15,2013-02-08 08:00:00,
2013-02-08 03:10:00,30.1,21.2,30.14,SW,227,0.0,3.0,69,0.00,,,0.00,Wunderground v.1.15,2013-02-08 08:10:00,
2013-02-08 03:20:00,30.1,21.2,30.14,SSW,206,1.0,1.0,69,0.00,,,0.00,Wunderground v.1.15,2013-02-08 08:20:00,
2013-02-08 03:30:00,30.1,20.8,30.12,ESE,109,1.0,1.0,68,0.00,,,0.00,Wunderground v.1.15,2013-02-08 08:30:00,
2013-02-08 03:40:00,30.1,20.8,30.12,WNW,291,0.0,0.0,68,0.00,,,0.00,Wunderground v.1.15,2013-02-08 08:40:00,
2013-02-08 03:50:00,30.1,21.2,30.11,SSW,195,0.0,0.0,69,0.00,,,0.00,Wunderground v.1.15,2013-02-08 08:50:00,
2013-02-08 04:00:00,30.1,21.5,30.11,SSW,192,0.0,1.0,70,0.00,,,0.00,Wunderground v.1.15,2013-02-08 09:00:00,
2013-02-08 04:10:00,30.3,22.0,30.11,South,184,1.0,1.0,71,0.00,,,0.00,Wunderground v.1.15,2013-02-08 09:10:00,
2013-02-08 04:20:00,30.1,22.2,30.10,SSE,157,0.0,0.0,72,0.00,,,0.00,Wunderground v.1.15,2013-02-08 09:20:00,
2013-02-08 04:30:00,30.1,22.2,30.09,South,169,0.0,1.0,72,0.00,,,0.00,Wunderground v.1.15,2013-02-08 09:30:00,
2013-02-08 04:40:00,30.0,22.1,30.09,ESE,107,0.0,0.0,72,0.00,,,0.00,Wunderground v.1.15,2013-02-08 09:40:00,
2013-02-08 04:50:00,29.8,21.5,30.10,ESE,121,1.0,1.0,71,0.00,,,0.00,Wunderground v.1.15,2013-02-08 09:50:00,
2013-02-08 05:00:00,29.7,21.4,30.09,SW,217,0.0,0.0,71,0.00,,,0.00,Wunderground v.1.15,2013-02-08 10:00:00,
2013-02-08 05:10:00,29.5,21.3,30.09,SSE,150,0.0,0.0,71,0.00,,,0.00,Wunderground v.1.15,2013-02-08 10:10:00,
2013-02-08 05:20:00,29.5,21.6,30.08,SW,226,0.0,0.0,72,0.00,,,0.00,Wunderground v.1.15,2013-02-08 10:20:00,
2013-02-08 05:30:00,29.5,21.6,30.08,SSW,210,0.0,0.0,72,0.00,,,0.00,Wunderground v.1.15,2013-02-08 10:30:00,
2013-02-08 05:40:00,29.5,21.9,30.08,SW,220,0.0,0.0,73,0.00,,,0.00,Wunderground v.1.15,2013-02-08 10:40:00,
2013-02-08 05:50:00,29.5,22.2,30.07,SW,217,0.0,0.0,74,0.00,,,0.00,Wunderground v.1.15,2013-02-08 10:50:00,
2013-02-08 06:00:00,29.5,22.2,30.06,SSE,152,0.0,0.0,74,0.00,,,0.00,Wunderground v.1.15,2013-02-08 11:00:00,
2013-02-08 06:10:00,29.7,22.7,30.06,South,174,0.0,0.0,75,0.00,,,0.00,Wunderground v.1.15,2013-02-08 11:10:00,
2013-02-08 06:20:00,29.8,22.8,30.05,ESE,116,0.0,1.0,75,0.00,,,0.00,Wunderground v.1.15,2013-02-08 11:20:00,
2013-02-08 06:30:00,30.0,23.4,30.04,SW,234,0.0,0.0,76,0.00,,,0.00,Wunderground v.1.15,2013-02-08 11:30:00,
2013-02-08 06:40:00,30.3,24.0,30.04,SSE,147,0.0,0.0,77,0.00,,,0.00,Wunderground v.1.15,2013-02-08 11:40:00,
2013-02-08 06:50:00,30.4,24.4,30.03,SE,134,0.0,0.0,78,0.00,,,0.00,Wunderground v.1.15,2013-02-08 11:50:00,
2013-02-08 07:00:00,30.6,24.9,30.02,South,186,0.0,0.0,79,0.00,,,0.00,Wunderground v.1.15,2013-02-08 12:00:00,
2013-02-08 07:10:00,30.7,25.3,30.02,ESE,119,0.0,1.0,80,0.00,,,0.00,Wunderground v.1.15,2013-02-08 12:10:00,
2013-02-08 07:20:00,30.9,25.8,30.02,WSW,246,1.0,1.0,81,0.00,,,0.00,Wunderground v.1.15,2013-02-08 12:20:00,
2013-02-08 07:30:00,30.9,25.8,30.02,SW,232,1.0,2.0,81,0.00,,,0.00,Wunderground v.1.15,2013-02-08 12:30:00,
2013-02-08 07:40:00,31.0,26.1,30.02,ESE,104,0.0,0.0,82,0.00,,,0.00,Wunderground v.1.15,2013-02-08 12:40:00,
2013-02-08 07:50:00,30.9,26.6,30.02,WSW,251,0.0,0.0,84,0.00,,,0.00,Wunderground v.1.15,2013-02-08 12:50:00,
2013-02-08 08:00:00,30.7,27.0,30.01,South,175,0.0,0.0,86,0.00,,,0.00,Wunderground v.1.15,2013-02-08 13:00:00,
2013-02-08 09:20:00,31.8,28.7,29.97,SE,133,0.0,0.0,88,0.00,,,0.00,Wunderground v.1.15,2013-02-08 14:20:00,
2013-02-08 09:30:00,31.8,28.4,29.95,NNW,336,0.0,0.0,87,0.00,,,0.00,Wunderground v.1.15,2013-02-08 14:30:00,
2013-02-08 09:40:00,31.9,28.5,29.95,ESE,107,1.0,1.0,87,0.00,,,0.00,Wunderground v.1.15,2013-02-08 14:40:00,
2013-02-08 09:50:00,31.9,28.5,29.94,North,8,0.0,0.0,87,0.00,,,0.00,Wunderground v.1.15,2013-02-08 14:50:00,
2013-02-08 10:00:00,31.9,28.5,29.94,NE,38,0.0,0.0,87,0.00,,,0.00,Wunderground v.1.15,2013-02-08 15:00:00,
2013-02-08 10:10:00,31.9,28.5,29.94,NNE,14,0.0,0.0,87,0.00,,,0.00,Wunderground v.1.15,2013-02-08 15:10:00,
2013-02-08 10:20:00,31.8,28.4,29.92,SW,236,0.0,0.0,87,0.00,,,0.00,Wunderground v.1.15,2013-02-08 15:20:00,
2013-02-08 10:30:00,31.8,28.4,29.91,SSW,192,1.0,1.0,87,0.00,,,0.00,Wunderground v.1.15,2013-02-08 15:30:00,
2013-02-08 10:40:00,31.8,28.4,29.91,SSW,202,0.0,0.0,87,0.00,,,0.00,Wunderground v.1.15,2013-02-08 15:40:00,
2013-02-08 10:50:00,31.8,28.4,29.90,SE,127,1.0,1.0,87,0.00,,,0.00,Wunderground v.1.15,2013-02-08 15:50:00,
2013-02-08 11:00:00,31.6,28.2,29.89,South,189,0.0,0.0,87,0.00,,,0.00,Wunderground v.1.15,2013-02-08 16:00:00,
2013-02-08 11:10:00,31.6,28.2,29.89,SW,229,0.0,0.0,87,0.00,,,0.00,Wunderground v.1.15,2013-02-08 16:10:00,
2013-02-08 11:20:00,31.6,28.2,29.87,WSW,244,0.0,0.0,87,0.00,,,0.00,Wunderground v.1.15,2013-02-08 16:20:00,
2013-02-08 11:30:00,31.5,28.1,29.86,South,185,0.0,0.0,87,0.00,,,0.00,Wunderground v.1.15,2013-02-08 16:30:00,
2013-02-08 11:40:00,31.5,28.1,29.86,SW,217,0.0,0.0,87,0.00,,,0.00,Wunderground v.1.15,2013-02-08 16:40:00,
2013-02-08 11:50:00,31.5,28.1,29.84,WSW,240,0.0,0.0,87,0.00,,,0.00,Wunderground v.1.15,2013-02-08 16:50:00,
2013-02-08 12:00:00,31.5,28.1,29.83,SW,227,0.0,0.0,87,0.00,,,0.00,Wunderground v.1.15,2013-02-08 17:00:00,
2013-02-08 12:10:00,31.5,28.1,29.83,South,189,0.0,0.0,87,0.00,,,0.00,Wunderground v.1.15,2013-02-08 17:10:00,
2013-02-08 12:20:00,31.6,28.2,29.82,South,178,0.0,0.0,87,0.00,,,0.00,Wunderground v.1.15,2013-02-08 17:20:00,
2013-02-08 12:30:00,31.5,28.1,29.80,SW,216,0.0,0.0,87,0.00,,,0.00,Wunderground v.1.15,2013-02-08 17:30:00,
2013-02-08 12:40:00,31.5,28.1,29.80,SSW,193,0.0,0.0,87,0.00,,,0.00,Wunderground v.1.15,2013-02-08 17:40:00,
2013-02-08 12:50:00,31.5,28.1,29.79,SSW,199,0.0,0.0,87,0.00,,,0.00,Wunderground v.1.15,2013-02-08 17:50:00,
2013-02-08 13:00:00,31.5,28.1,29.77,SSW,213,0.0,0.0,87,0.00,,,0.00,Wunderground v.1.15,2013-02-08 18:00:00,
2013-02-08 13:20:00,31.3,28.2,29.75,SSW,200,0.0,0.0,88,0.00,,,0.00,Wunderground v.1.15,2013-02-08 18:20:00,
2013-02-08 13:50:00,31.3,28.4,29.73,SSW,203,0.0,0.0,89,0.00,,,0.00,Wunderground v.1.15,2013-02-08 18:50:00,
2013-02-08 14:00:00,31.5,28.6,29.71,SSW,203,0.0,0.0,89,0.00,,,0.00,Wunderground v.1.15,2013-02-08 19:00:00,
2013-02-08 14:10:00,31.6,28.7,29.71,SSW,203,0.0,0.0,89,0.00,,,0.00,Wunderground v.1.15,2013-02-08 19:10:00,
2013-02-08 14:20:00,31.5,28.6,29.69,SSW,205,0.0,0.0,89,0.00,,,0.00,Wunderground v.1.15,2013-02-08 19:20:00,
2013-02-08 14:30:00,31.3,28.4,29.68,SSW,205,0.0,0.0,89,0.00,,,0.00,Wunderground v.1.15,2013-02-08 19:30:00,
2013-02-08 14:40:00,31.3,28.4,29.68,SSW,205,0.0,0.0,89,0.00,,,0.00,Wunderground v.1.15,2013-02-08 19:40:00,
2013-02-08 14:50:00,31.2,28.3,29.67,SSW,205,0.0,0.0,89,0.00,,,0.00,Wunderground v.1.15,2013-02-08 19:50:00,
2013-02-08 15:00:00,31.0,28.1,29.66,SSW,205,0.0,0.0,89,0.00,,,0.00,Wunderground v.1.15,2013-02-08 20:00:00,
2013-02-08 15:10:00,31.0,28.4,29.66,SSW,205,0.0,0.0,90,0.00,,,0.00,Wunderground v.1.15,2013-02-08 20:10:00,
2013-02-08 15:20:00,30.7,28.1,29.64,SSW,205,0.0,0.0,90,0.00,,,0.00,Wunderground v.1.15,2013-02-08 20:20:00,
2013-02-08 15:30:00,30.7,28.1,29.64,SSW,205,0.0,0.0,90,0.00,,,0.00,Wunderground v.1.15,2013-02-08 20:30:00,
2013-02-08 15:40:00,30.7,28.1,29.64,SSW,205,0.0,0.0,90,0.00,,,0.00,Wunderground v.1.15,2013-02-08 20:40:00,
2013-02-08 15:50:00,30.7,28.1,29.63,SSW,205,0.0,0.0,90,0.00,,,0.00,Wunderground v.1.15,2013-02-08 20:50:00,
2013-02-08 16:00:00,30.7,28.1,29.62,SSW,205,0.0,0.0,90,0.00,,,0.00,Wunderground v.1.15,2013-02-08 21:00:00,
2013-02-08 16:10:00,30.7,28.4,29.62,SSW,205,0.0,0.0,91,0.00,,,0.00,Wunderground v.1.15,2013-02-08 21:10:00,
2013-02-08 16:20:00,30.7,28.4,29.62,SSW,205,0.0,0.0,91,0.00,,,0.00,Wunderground v.1.15,2013-02-08 21:20:00,
2013-02-08 16:30:00,30.7,28.4,29.61,SSW,205,0.0,0.0,91,0.00,,,0.00,Wunderground v.1.15,2013-02-08 21:30:00,
2013-02-08 16:40:00,30.7,28.4,29.61,SSW,205,0.0,0.0,91,0.00,,,0.00,Wunderground v.1.15,2013-02-08 21:40:00,
2013-02-08 16:50:00,30.6,28.3,29.60,SSW,205,0.0,0.0,91,0.00,,,0.00,Wunderground v.1.15,2013-02-08 21:50:00,
2013-02-08 17:00:00,30.4,28.1,29.60,SSW,205,0.0,0.0,91,0.00,,,0.00,Wunderground v.1.15,2013-02-08 22:00:00,
2013-02-08 17:10:00,30.3,28.0,29.60,SSW,205,0.0,0.0,91,0.00,,,0.00,Wunderground v.1.15,2013-02-08 22:10:00,
2013-02-08 17:20:00,30.1,27.8,29.60,SSW,205,0.0,0.0,91,0.00,,,0.00,Wunderground v.1.15,2013-02-08 22:20:00,
2013-02-08 17:30:00,30.0,27.7,29.59,SSW,205,0.0,0.0,91,0.00,,,0.00,Wunderground v.1.15,2013-02-08 22:30:00,
2013-02-08 17:40:00,30.0,27.7,29.59,SSW,205,0.0,0.0,91,0.00,,,0.00,Wunderground v.1.15,2013-02-08 22:40:00,
2013-02-08 17:50:00,29.8,27.5,29.58,SSW,205,0.0,0.0,91,0.00,,,0.00,Wunderground v.1.15,2013-02-08 22:50:00,
2013-02-08 18:00:00,29.7,27.4,29.57,SSW,205,0.0,0.0,91,0.00,,,0.00,Wunderground v.1.15,2013-02-08 23:00:00,
2013-02-08 18:10:00,29.5,27.2,29.57,SSW,205,0.0,0.0,91,0.00,,,0.00,Wunderground v.1.15,2013-02-08 23:10:00,
2013-02-08 18:20:00,29.5,26.9,29.58,SSW,205,0.0,0.0,90,0.00,,,0.00,Wunderground v.1.15,2013-02-08 23:20:00,
2013-02-08 18:30:00,29.3,26.7,29.57,SSW,205,0.0,0.0,90,0.00,,,0.00,Wunderground v.1.15,2013-02-08 23:30:00,
2013-02-08 18:40:00,29.1,26.5,29.57,SSW,205,0.0,0.0,90,0.00,,,0.00,Wunderground v.1.15,2013-02-08 23:40:00,
2013-02-08 18:50:00,29.0,26.4,29.56,SSW,205,0.0,0.0,90,0.00,,,0.00,Wunderground v.1.15,2013-02-08 23:50:00,
2013-02-08 19:00:00,28.8,26.2,29.56,SSW,205,0.0,0.0,90,0.00,,,0.00,Wunderground v.1.15,2013-02-09 00:00:00,
2013-02-08 19:10:00,28.7,26.1,29.56,SSW,205,0.0,0.0,90,0.00,,,0.00,Wunderground v.1.15,2013-02-09 00:10:00,
2013-02-08 19:20:00,28.4,25.8,29.55,SSW,205,0.0,0.0,90,0.00,,,0.00,Wunderground v.1.15,2013-02-09 00:20:00,
2013-02-08 19:30:00,28.4,25.8,29.55,SSW,205,0.0,0.0,90,0.00,,,0.00,Wunderground v.1.15,2013-02-09 00:30:00,
2013-02-08 19:40:00,28.2,25.6,29.55,SSW,205,0.0,0.0,90,0.00,,,0.00,Wunderground v.1.15,2013-02-09 00:40:00,
2013-02-08 19:50:00,28.1,25.5,29.54,SSW,205,0.0,0.0,90,0.00,,,0.00,Wunderground v.1.15,2013-02-09 00:50:00,
2013-02-08 20:00:00,28.1,25.5,29.54,SSW,205,0.0,0.0,90,0.00,,,0.00,Wunderground v.1.15,2013-02-09 01:00:00,
2013-02-08 20:10:00,27.9,25.3,29.54,SSW,205,0.0,0.0,90,0.00,,,0.00,Wunderground v.1.15,2013-02-09 01:10:00,
2013-02-08 20:20:00,27.9,25.3,29.53,SSW,206,0.0,0.0,90,0.00,,,0.00,Wunderground v.1.15,2013-02-09 01:20:00,
2013-02-08 20:30:00,27.8,25.2,29.52,SSW,206,0.0,0.0,90,0.00,,,0.00,Wunderground v.1.15,2013-02-09 01:30:00,
2013-02-08 20:40:00,27.8,25.2,29.52,SSW,200,0.0,0.0,90,0.00,,,0.00,Wunderground v.1.15,2013-02-09 01:40:00,
2013-02-08 20:50:00,27.9,25.3,29.52,SSW,193,0.0,0.0,90,0.00,,,0.00,Wunderground v.1.15,2013-02-09 01:50:00,
2013-02-08 21:00:00,27.9,25.3,29.52,South,184,0.0,0.0,90,0.00,,,0.00,Wunderground v.1.15,2013-02-09 02:00:00,
2013-02-08 21:10:00,27.9,25.3,29.52,SSW,192,0.0,0.0,90,0.00,,,0.00,Wunderground v.1.15,2013-02-09 02:10:00,
2013-02-08 21:20:00,27.9,25.3,29.52,SSW,196,0.0,0.0,90,0.00,,,0.00,Wunderground v.1.15,2013-02-09 02:20:00,
2013-02-08 21:30:00,27.9,25.3,29.52,SSW,192,0.0,0.0,90,0.00,,,0.00,Wunderground v.1.15,2013-02-09 02:30:00,
2013-02-08 21:40:00,27.8,25.2,29.52,SSW,192,0.0,0.0,90,0.00,,,0.00,Wunderground v.1.15,2013-02-09 02:40:00,
2013-02-08 21:50:00,27.8,25.2,29.53,SSW,202,0.0,0.0,90,0.00,,,0.00,Wunderground v.1.15,2013-02-09 02:50:00,
2013-02-08 22:00:00,27.5,25.0,29.54,SW,224,0.0,0.0,90,0.00,,,0.00,Wunderground v.1.15,2013-02-09 03:00:00,
2013-02-08 22:10:00,27.2,24.7,29.54,WNW,302,0.0,0.0,90,0.00,,,0.00,Wunderground v.1.15,2013-02-09 03:10:00,
2013-02-08 22:20:00,26.9,24.1,29.56,SW,230,0.0,0.0,89,0.00,,,0.00,Wunderground v.1.15,2013-02-09 03:20:00,
2013-02-08 22:30:00,26.6,23.8,29.57,South,179,0.0,0.0,89,0.00,,,0.00,Wunderground v.1.15,2013-02-09 03:30:00,
2013-02-08 22:40:00,26.3,23.5,29.57,WNW,301,0.0,0.0,89,0.00,,,0.00,Wunderground v.1.15,2013-02-09 03:40:00,
2013-02-08 22:50:00,26.3,23.5,29.58,East,88,0.0,0.0,89,0.00,,,0.00,Wunderground v.1.15,2013-02-09 03:50:00,
2013-02-08 23:00:00,26.0,23.2,29.60,SE,130,0.0,0.0,89,0.00,,,0.00,Wunderground v.1.15,2013-02-09 04:00:00,
2013-02-08 23:10:00,25.8,23.0,29.60,WSW,254,0.0,0.0,89,0.00,,,0.00,Wunderground v.1.15,2013-02-09 04:10:00,
2013-02-08 23:20:00,25.8,23.0,29.60,SE,137,0.0,0.0,89,0.00,,,0.00,Wunderground v.1.15,2013-02-09 04:20:00,
2013-02-08 23:30:00,25.8,23.0,29.61,SW,223,0.0,0.0,89,0.00,,,0.00,Wunderground v.1.15,2013-02-09 04:30:00,
2013-02-08 23:40:00,25.8,23.0,29.61,WSW,246,0.0,0.0,89,0.00,,,0.00,Wunderground v.1.15,2013-02-09 04:40:00,
2013-02-08 23:50:00,24.8,22.0,29.61,SSE,161,0.0,0.0,89,0.00,,,0.00,Wunderground v.1.15,2013-02-09 04:50:00,